User: anonymous
Location: Unspecified
(0.0000°N, 0.0000°E)
Time: 23:16:23
(UTC+02:00)
Language:

Cosmos 2251 - Orbit

View from above orbital plane
View from above orbital plane
View from above satellite
View from above satellite

Ground track
Ground track

The orbit data is extracted from the following two-line orbital elements,

1 22675U 93036A   14210.93614735  .00000029  00000-0  20231-4 0  3121
2 22675 074.0421 338.1153 0025537 351.1463 147.6059 14.32333709103226
Epoch (UTC): 29 July 2014 22:28:03
Eccentricity: 0.0025537
inclination: 74.0421°
perigee height: 765 km
apogee height: 802 km
right ascension of ascending node: 338.1153°
argument of perigee: 351.1463°
revolutions per day: 14.32333709
mean anomaly at epoch: 147.6059°
orbit number at epoch: 10322

The dashed part of the orbit path shows where the satellite is in the earth's shadow,  

DLR